Regional Weather Roundup
Issued by NWS Cleveland, OH

Home | Current Version | Previous Version | Graphics & Text | Print | Product List | Glossary On
Versions: 1 2 3 4 5 6 7 8 9 10 11 12 13 14 15 16 17 18 19 20 21 22 23 24 25 26 27 28 29 30 31 32 33 34 35 36 37 38 39 40 41 42 43 44 45 46 47 48 49 50
000
ASUS41 KCLE 262102
RWRCLE
OHIO REGIONAL WEATHER ROUNDUP
NATIONAL WEATHER SERVICE CLEVELAND, OH
500 PM EDT THU MAR 26 2015

NOTE: "FAIR" INDICATES FEW OR NO CLOUDS BELOW 12,000 FEET WITH NO
SIGNIFICANT WEATHER AND/OR OBSTRUCTIONS TO VISIBILITY.

OHZ001>008-015>018-024>027-034-035-043-044-262200-
   NORTHWEST OHIO

CITY           SKY/WX    TMP DP  RH WIND       PRES   REMARKS
DEFIANCE       PTSUNNY   44  29  55 NW12      29.88R
FINDLAY        CLOUDY    43  33  68 NW14      29.87R
TOLEDO EXPRESS PTSUNNY   43  28  55 W8        29.86R
TOLEDO EXEC    CLOUDY    43  29  57 W13       29.87R
LIMA           CLOUDY    42  33  70 NW14      29.89R
$$

OHZ009>014-019>023-028>033-038-089-262200-
   NORTHEAST OHIO

CITY           SKY/WX    TMP DP  RH WIND       PRES   REMARKS
CLE-HOPKINS    CLOUDY    36  34  92 W5        29.87S
CLE-LAKEFRONT  CLOUDY    35  34  96 SW6       29.85S FOG
CUY CO. ARPT   FOG       36  36 100 W8        29.85R VSB 3/4
LORAIN-ELYRIA  CLOUDY    36  34  92 W6        29.85R
ASHTABULA      CLOUDY    35  32  88 NW7       29.84R WCI  29
AKRON-CANTON   LGT RAIN  39  35  86 NW9       29.81R
WOOSTER        CLOUDY    38  35  89 NW7       29.82F
MANSFIELD      CLOUDY    37  36  96 NW8       29.82F
YOUNGSTOWN     LGT RAIN  38  36  92 NW14      29.81R
$$

OHZ042-051>053-060>062-070>072-077>081-262200-
  SOUTHWEST OHIO

CITY           SKY/WX    TMP DP  RH WIND       PRES   REMARKS
CINC-COVINGTON CLOUDY    45  40  82 NW15      29.89F
CINC-LUNKEN    CLOUDY    46  41  82 NW13      29.91R
HAMILTON       CLOUDY    44  38  79 NW10      29.91S
DAYTON         CLOUDY    41  36  82 NW12      29.91R
WRIGHT-PAT AFB CLOUDY    41  36  83 NW12      29.90R
DAYTON GENERAL CLOUDY    42  37  82 NW9       29.88R
WILMINGTON     CLOUDY    43  39  86 NW13      29.87R
$$

OHZ036-037-039>041-045>050-054>059-063>069-073>076-082>088-262200-
  CENTRAL AND SOUTHEAST OHIO

CITY           SKY/WX    TMP DP  RH WIND       PRES   REMARKS
COLUMBUS       LGT RAIN  43  40  89 NW9       29.84S
OSU AIRPORT    CLOUDY    42  37  82 NW12      29.85S
BOLTON FIELD   CLOUDY    43  41  93 W10       29.85F
RICKENBACK AFB NOT AVBL
NEWARK         CLOUDY    44  39  82 NW8       29.83S
MARION         CLOUDY    40  34  79 NW9       29.85F
LANCASTER      CLOUDY    45  41  86 NW10      29.84F
ZANESVILLE     CLOUDY    45  40  82 NW7       29.82R
NEW PHILLY     LGT RAIN  45  39  79 NW10      29.82S
$$



USA.gov is the U.S. government's official web portal to all federal, state and local government web resources and services.